Weather History for Grand Junction, CO

Change the Weather History Date:

Sunday, November 11, 2012

  Actual Average Record
Temperature  
Mean Temperature 25 °F 41 °F  
Max Temperature 36 °F 53 °F 68 °F (1980)
Min Temperature 13 °F 29 °F 13 °F (1903)
Degree Days  
Heating Degree Days 40 24  
Month to date heating degree days 197 234  
Since 1 July heating degree days 606 682  
Cooling Degree Days 0 0  
Month to date cooling degree days 0 0  
Year to date cooling degree days 1515 1125  
Moisture  
Dew Point 18 °F    
Average Humidity 69    
Maximum Humidity 100    
Minimum Humidity 38    
Precipitation  
Precipitation 0.01 in 0.03 in 0.45 in (1988)
Month to date precipitation 0.16 0.30  
Year to date precipitation 3.47 8.40  
Snow  
Snow 0.20 in 0.00 in 3.00 in (1911)
Month to date snowfall 2.5 0.4  
Since 1 July snowfall 2.5 0.8  
Since 1 September snowfall 2.5 0.8  
Snow Depth 1.00 in    
Sea Level Pressure  
Sea Level Pressure 30.18 in    
Wind  
Wind Speed 6 mph (North)    
Max Wind Speed 21 mph    
Max Gust Speed 25 mph    
Visibility 9 miles    
Events Snow    
T = Trace of Precipitation, MM = Missing Value Source: NWS Daily Summary

Daily Weather History Graph

Daily Weather History Graph

Search for Another Location

Airport:

Trip Planner

Search our weather history database for the weather conditions in past years. The results will help you decide how hot, cold, wet, or windy it might be!

Date:

Astronomy

Nov. 11, 2012 Rise Set
Actual Time 6:53 AM MST 5:02 PM MST
Civil Twilight 6:25 AM MST 5:30 PM MST
Nautical Twilight 5:52 AM MST 6:03 PM MST
Astronomical Twilight 5:21 AM MST 6:34 PM MST
Moon 4:11 AM MST (11/11) 3:27 PM MST (11/11)
Length of Visible Light 11h 05m
Length of Day
10h 09m
Waning Crescent, 7% of the Moon is Illuminated
Nov 11
Waning Crescent
Nov 13
New
Nov 20
First Quarter
Nov 28
Full
Dec 6
Last Quarter

Hourly Weather History & Observations

Time (MST) Temp. Windchill Dew Point Humidity Pressure Visibility Wind Dir Wind Speed Gust Speed Precip Events Conditions
12:26 AM 26.6 °F 20.0 °F 24.8 °F 93% 29.90 in 1.8 mi North 5.8 mph - 0.00 in Snow Light Snow
12:41 AM 26.6 °F 21.2 °F 26.6 °F 100% 29.91 in 1.2 mi ESE 4.6 mph - 0.01 in Snow Light Snow
12:45 AM 26.6 °F 21.2 °F 26.6 °F 100% 29.91 in 2.5 mi ESE 4.6 mph - 0.01 in Snow Light Snow
12:53 AM 26.1 °F 20.5 °F 26.1 °F 100% 29.92 in 8.0 mi SSE 4.6 mph - 0.01 in Snow Light Snow
1:53 AM 23.0 °F - 23.0 °F 100% 29.96 in 10.0 mi Calm Calm - N/A   Mostly Cloudy
2:29 AM 19.4 °F - 19.4 °F 100% 29.94 in 10.0 mi Calm Calm - N/A   Mostly Cloudy
2:53 AM 18.0 °F 12.7 °F 18.0 °F 100% 29.99 in 10.0 mi ENE 3.5 mph - N/A   Partly Cloudy
3:53 AM 15.1 °F - 14.0 °F 95% 30.03 in 10.0 mi Calm Calm - N/A   Mostly Cloudy
4:53 AM 17.1 °F - 15.1 °F 92% 30.07 in 10.0 mi Calm Calm - N/A   Overcast
5:53 AM 15.1 °F - 14.0 °F 95% 30.12 in 10.0 mi Calm Calm - N/A   Mostly Cloudy
6:53 AM 19.9 °F - 19.0 °F 96% 30.14 in 10.0 mi Calm Calm - N/A   Overcast
7:53 AM 19.0 °F - 17.1 °F 92% 30.17 in 10.0 mi Calm Calm - N/A   Scattered Clouds
8:53 AM 18.0 °F 11.1 °F 17.1 °F 96% 30.22 in 10.0 mi NW 4.6 mph - N/A   Clear
9:10 AM 19.4 °F 14.3 °F 19.4 °F 100% 30.12 in 10.0 mi NW 3.5 mph - N/A   Scattered Clouds
9:13 AM 19.4 °F 14.3 °F 19.4 °F 100% 30.12 in 2.0 mi NNW 3.5 mph - N/A   Mostly Cloudy
9:17 AM 19.4 °F 14.3 °F 19.4 °F 100% 30.12 in 0.8 mi NW 3.5 mph - N/A   Mist
9:24 AM 21.2 °F 14.9 °F 19.4 °F 93% 30.13 in 6.0 mi North 4.6 mph - N/A   Mostly Cloudy
9:36 AM 21.2 °F 12.6 °F 19.4 °F 93% 30.13 in 10.0 mi ENE 6.9 mph - N/A   Scattered Clouds
9:53 AM 24.1 °F 19.7 °F 21.9 °F 91% 30.22 in 10.0 mi East 3.5 mph - N/A   Scattered Clouds
10:53 AM 28.0 °F 21.7 °F 19.9 °F 72% 30.22 in 10.0 mi North 5.8 mph - N/A   Mostly Cloudy
11:53 AM 30.0 °F 21.1 °F 21.0 °F 69% 30.22 in 10.0 mi North 10.4 mph - N/A   Clear
12:53 PM 32.0 °F 24.8 °F 21.9 °F 66% 30.21 in 10.0 mi North 8.1 mph - N/A   Partly Cloudy
1:53 PM 36.0 °F 25.3 °F 21.0 °F 55% 30.22 in 10.0 mi WSW 19.6 mph 24.2 mph N/A   Mostly Cloudy
2:53 PM 35.1 °F 28.6 °F 18.0 °F 50% 30.26 in 10.0 mi West 8.1 mph - N/A   Partly Cloudy
3:53 PM 36.0 °F 27.5 °F 16.0 °F 44% 30.28 in 10.0 mi West 12.7 mph - N/A   Mostly Cloudy
4:53 PM 34.0 °F 26.0 °F 15.1 °F 46% 30.30 in 10.0 mi West 10.4 mph - N/A   Mostly Cloudy
5:53 PM 34.0 °F - 12.0 °F 40% 30.33 in 10.0 mi Calm Calm - N/A   Scattered Clouds
6:53 PM 33.1 °F 22.6 °F 10.0 °F 38% 30.34 in 10.0 mi WSW 16.1 mph 23.0 mph N/A   Partly Cloudy
7:53 PM 30.0 °F 24.1 °F 14.0 °F 51% 30.38 in 10.0 mi North 5.8 mph - N/A   Clear
8:53 PM 26.1 °F 19.4 °F 15.1 °F 63% 30.45 in 10.0 mi ENE 5.8 mph - N/A   Clear
9:53 PM 25.0 °F 18.1 °F 12.9 °F 60% 30.46 in 10.0 mi ENE 5.8 mph - N/A   Clear
10:53 PM 21.9 °F 17.2 °F 14.0 °F 72% 30.48 in 10.0 mi East 3.5 mph - N/A   Clear
11:53 PM 21.0 °F 11.4 °F 16.0 °F 81% 30.50 in 10.0 mi ESE 8.1 mph - N/A   Clear